Lexington Weather

Lexington, Massachusetts, USA

74°F
8/7/2020 11:53am 
  • Lexington Conditions: Clear
  • Temperature: 74.3°F / 23.5°CWarmer 2.9°F than last hour.
  • Dew Point: 63.9°FIncreased 0.8°Fsince last hour.
  • Relative Humidity: 70%Decreased 5.0% since last hour.
  • Wind: Calm, 10-min avg: Calm, gust: 2 mph
  • Barometer: 30.13 inFalling 0.02  inHg/hr Falling Slowly
  • Visibility: 10 miles
  • Rain Today: 0.00 in
  •   

Regional Weather Roundup
for Boston / Norton, MA

        
000
ASUS41 KBOX 311704
RWRBOX

REGIONAL WEATHER ROUNDUP
NATIONAL WEATHER SERVICE BOSTON/NORTON MA
100 PM EDT FRI JUL 31 2020

NOTE:  "FAIR" INDICATES FEW OR NO CLOUDS BELOW 12,000 FEET WITH NO 
SIGNIFICANT WEATHER AND/OR OBSTRUCTIONS TO VISIBILITY.

MAZALL-311800-
EASTERN MASSACHUSETTS
  
CITY           SKY/WX    TMP DP  RH WIND       PRES   REMARKS
BOSTON         PTSUNNY   75  63  66 E9        29.83F                  
BEVERLY        SUNNY     81  63  54 SE10      29.82F                  
LAWRENCE       MOSUNNY   82  62  50 VRB3      29.84F                  
BEDFORD        MOSUNNY   85  61  44 VRB6      29.80F                  
BLUE HILL      NOT AVBL                                               
NORWOOD        PTSUNNY   83  59  44 CALM      29.81F                  
MARSHFIELD     PTSUNNY   79  64  61 NE7       29.82F                  
PLYMOUTH       CLOUDY    80  66  62 NE6       29.82F                  
TAUNTON        CLOUDY    82  68  62 CALM      29.81F                  
NEW BEDFORD    CLOUDY    80  69  69 VRB5      29.81F                  
$$

MAZALL-311800-
CAPE COD AND THE ISLANDS
  
CITY           SKY/WX    TMP DP  RH WIND       PRES   REMARKS
FALMOUTH       PTSUNNY   75  70  83 NW5       29.82S                  
HYANNIS        CLOUDY    77  69  76 VRB5      29.81R                  
CHATHAM        CLOUDY    78  68  71 CALM      29.83R                  
PROVINCETOWN   PTSUNNY   75  68  78 N6        29.83S                  
NANTUCKET      CLOUDY    75  67  76 W3        29.83R                  
MARTHAS VNYRD  LGT RAIN  74  69  85 W3        29.82F                  
$$
 
MAZALL-311800-
CENTRAL AND WESTERN MASSACHUSETTS
  
CITY           SKY/WX    TMP DP  RH WIND       PRES   REMARKS
WORCESTER      MOSUNNY   82  56  40 NE7       29.85F                  
FITCHBURG      SUNNY     83  58  42 SW5       29.83F                  
ORANGE         PTSUNNY   84  57  39 VRB6      29.84F                  
SPRINGFIELD    NOT AVBL                                               
WESTFIELD      MOSUNNY   84  60  44 VRB5      29.81F                  
NORTH ADAMS    SUNNY     82  60  47 CALM      29.84F                  
PITTSFIELD     SUNNY     81  59  47 W7        29.85F                  
$$
 
RIZALL-311800-
RHODE ISLAND
  
CITY           SKY/WX    TMP DP  RH WIND       PRES   REMARKS
PROVIDENCE     CLOUDY    78  68  71 VRB3      29.82F                  
NEWPORT        CLOUDY    76  67  73 NW6       29.82F                  
BLOCK ISLAND   LGT RAIN  70  68  93 CALM      29.84S                  
SMITHFIELD     PTSUNNY   79  68  69 VRB3      29.84F                  
WESTERLY       CLOUDY    76  67  73 CALM      29.83F                  
$$
 
CTZALL-311800-
CONNECTICUT
  
CITY           SKY/WX    TMP DP  RH WIND       PRES   REMARKS
BRADLEY INTL   PTSUNNY   84  59  42 S6        29.80F                  
HARTFORD       MOSUNNY   81  65  58 S7        29.81F                  
BRIDGEPORT     CLOUDY    75  68  78 E5        29.82S                  
DANBURY        PTSUNNY   74  63  68 SE3       29.85S                  
GROTON         CLOUDY    74  69  85 CALM      29.81F                  
NEW HAVEN      CLOUDY    77  70  79 E6        29.83S                  
CHESTER        NOT AVBL                                               
MERIDEN        PTSUNNY   79  63  57 NE3       29.82F                  
WILLIMANTIC    PTSUNNY   77  64  64 S5        29.83F                  
OXFORD         PTSUNNY   75  64  68 CALM      29.86F                  
$$

MEZ002-015-021-024-NHZ003-005-008-011-012-014-VTZ005-008-311800-
NORTHERN NEW ENGLAND
  
CITY           SKY/WX    TMP DP  RH WIND       PRES   REMARKS
PORTLAND ME    MOSUNNY   81  63  54 E9        29.83S                  
BANGOR ME      MOSUNNY   80  60  50 VRB6      29.81F                  
CONCORD NH     SUNNY     84  57  39 W8        29.83S                  
MANCHESTER NH  MOSUNNY   85  55  35 CALM      29.81F                  
NASHUA NH      PTSUNNY   85  60  42 VRB6      29.82F                  
PORTSMOUTH NH  MOSUNNY   80  58  46 E13       29.82S                  
JAFFREY NH     SUNNY     82  54  37 MISG      29.86F                  
KEENE NH       MOSUNNY   82  59  45 N5        29.83F                  
BURLINGTON VT  MOSUNNY   81  58  45 VRB7      29.87S                  
MT. WASHINGTON PTSUNNY   55  46  71 W7          N/A                   
$$

NYZ052-076-311800-
EASTERN NEW YORK
  
CITY           SKY/WX    TMP DP  RH WIND       PRES   REMARKS
ALBANY         MOSUNNY   78  63  59 NW8       29.84F                  
NEW YORK CITY  CLOUDY    75  66  73 VRB6      29.82S                  
$$
 
ANZALL-311800-
MARINE OBSERVATIONS
  
STATION/POSITION TIME  TEMP    WIND        PRES    VSBY  WAVE
                       AIR SEA DIR/SP/G                  HT/PER
                 (UTC) (F)     (DEG/KT/KT) (MB)    (MI)  (FT/S)
BOSTON BUOY      1650   72 74   40/  4/  6 1008.8F         1/10
BUZZARDS BAY     1600          260/  4/  4 1011.2R
NANTUCKET SOUND  1640      77  290/  4/  6 1009.0S
MASS BAY-STELLWA NOT AVBL
ISLE OF SHOALS   NOT AVBL
S OF BLOCK IS    1626      76                N/A           2/ 6
$$

......................KEY.........................
  SKY/WX - SKY CONDITION/PRESENT WEATHER
  TMP    - TEMPERATURE IN FAHRENHEIT
  DWPT   - DEWPOINT IN FAHRENHEIT
  RH     - RELATIVE HUMIDITY IN PERCENT
  WIND   - DIRECTION AND SPEED IN MPH
  PRES   - MEAN SEA LEVEL PRESSURE IN INCHES OF HG
  WCI    - WIND CHILL INDEX
  VSB    - VISIBILITY IN MILES
  HX     - HEAT INDEX
  TC     - TEMPERATURE IN CELSIUS
  VRB    - VARIABLE WIND DIRECTION
  N/A    - NOT AVAILABLE
  
      

Other recent Regional Weather Roundups

Fri Aug 7, 11:04am

Fri Aug 7, 10:04am

Fri Aug 7, 9:04am

Fri Aug 7, 8:04am

Fri Aug 7, 7:04am

Fri Aug 7, 6:04am

Fri Aug 7, 5:04am

Fri Aug 7, 4:04am

Fri Aug 7, 3:04am

Fri Aug 7, 2:04am

Fri Aug 7, 1:05am

Fri Aug 7, 12:04am

Thu Aug 6, 11:04pm

Thu Aug 6, 10:04pm

Thu Aug 6, 9:04pm

Thu Aug 6, 8:04pm

Thu Aug 6, 7:04pm

Thu Aug 6, 6:04pm

Thu Aug 6, 5:04pm

Thu Aug 6, 4:05pm

Thu Aug 6, 3:04pm

Thu Aug 6, 2:05pm

Thu Aug 6, 1:04pm

Thu Aug 6, 12:04pm

Thu Aug 6, 11:04am

Thu Aug 6, 10:04am

Thu Aug 6, 9:04am

Thu Aug 6, 8:04am

Thu Aug 6, 7:04am

Thu Aug 6, 6:04am

Thu Aug 6, 5:04am

Thu Aug 6, 4:04am

Thu Aug 6, 3:04am

Thu Aug 6, 2:05am

Thu Aug 6, 1:04am

Thu Aug 6, 12:04am

Wed Aug 5, 11:04pm

Wed Aug 5, 10:04pm

Wed Aug 5, 9:04pm

Wed Aug 5, 8:05pm

Wed Aug 5, 7:04pm

Wed Aug 5, 6:04pm

Wed Aug 5, 5:04pm

Wed Aug 5, 4:05pm

Wed Aug 5, 3:04pm

Wed Aug 5, 2:04pm

Wed Aug 5, 1:04pm

Wed Aug 5, 12:04pm

Wed Aug 5, 11:04am

Wed Aug 5, 10:04am

Wed Aug 5, 9:04am

Wed Aug 5, 8:04am

Wed Aug 5, 7:04am

Wed Aug 5, 6:04am

Wed Aug 5, 5:04am

Wed Aug 5, 4:04am

Wed Aug 5, 3:04am

Wed Aug 5, 2:05am

Wed Aug 5, 1:04am

Wed Aug 5, 12:05am

Tue Aug 4, 11:05pm

Tue Aug 4, 10:05pm

Tue Aug 4, 9:04pm

Tue Aug 4, 8:04pm

Tue Aug 4, 7:05pm

Tue Aug 4, 6:05pm

Tue Aug 4, 5:05pm

Tue Aug 4, 4:05pm

Tue Aug 4, 3:04pm

Tue Aug 4, 2:05pm

Tue Aug 4, 1:04pm

Tue Aug 4, 12:05pm

Tue Aug 4, 11:04am

Tue Aug 4, 10:04am

Tue Aug 4, 9:04am

Tue Aug 4, 8:04am

Tue Aug 4, 7:04am

Tue Aug 4, 6:04am

Tue Aug 4, 5:04am

Tue Aug 4, 4:04am

Tue Aug 4, 3:04am

Tue Aug 4, 2:04am

Tue Aug 4, 1:04am

Tue Aug 4, 12:04am

Mon Aug 3, 11:04pm

Mon Aug 3, 10:04pm

Mon Aug 3, 9:04pm

Mon Aug 3, 8:05pm

Mon Aug 3, 7:04pm

Mon Aug 3, 6:04pm

Mon Aug 3, 5:04pm

Mon Aug 3, 4:05pm

Mon Aug 3, 3:04pm

Mon Aug 3, 2:04pm

Mon Aug 3, 1:04pm

Mon Aug 3, 12:05pm

Mon Aug 3, 11:04am

Mon Aug 3, 10:04am

Mon Aug 3, 9:05am

Mon Aug 3, 8:04am

Mon Aug 3, 7:04am

Mon Aug 3, 6:04am

Mon Aug 3, 5:04am

Mon Aug 3, 4:04am

Mon Aug 3, 3:04am

Mon Aug 3, 2:04am

Mon Aug 3, 1:04am

Mon Aug 3, 12:05am

Sun Aug 2, 11:04pm

Sun Aug 2, 10:04pm

Sun Aug 2, 9:04pm

Sun Aug 2, 8:04pm

Sun Aug 2, 7:04pm

Sun Aug 2, 6:04pm

Sun Aug 2, 5:04pm

Sun Aug 2, 4:05pm

Sun Aug 2, 3:04pm

Sun Aug 2, 2:05pm

Sun Aug 2, 1:04pm

Sun Aug 2, 12:04pm

Sun Aug 2, 11:04am

Sun Aug 2, 10:04am

Sun Aug 2, 9:05am

Sun Aug 2, 8:05am

Sun Aug 2, 7:04am

Sun Aug 2, 6:04am

Sun Aug 2, 5:04am

Sun Aug 2, 4:05am

Sun Aug 2, 3:04am

Sun Aug 2, 2:04am

Sun Aug 2, 1:04am

Sun Aug 2, 12:05am

Sat Aug 1, 11:04pm

Sat Aug 1, 10:04pm

Sat Aug 1, 9:04pm

Sat Aug 1, 8:05pm

Sat Aug 1, 7:04pm

Sat Aug 1, 6:04pm

Sat Aug 1, 5:05pm

Sat Aug 1, 4:05pm

Sat Aug 1, 3:04pm

Sat Aug 1, 2:04pm

Sat Aug 1, 1:04pm

Sat Aug 1, 12:04pm

Sat Aug 1, 11:05am

Sat Aug 1, 10:05am

Sat Aug 1, 9:04am

Sat Aug 1, 8:04am

Sat Aug 1, 7:04am

Sat Aug 1, 6:04am

Sat Aug 1, 5:04am

Sat Aug 1, 4:05am

Sat Aug 1, 3:04am

Sat Aug 1, 2:04am

Sat Aug 1, 1:04am

Sat Aug 1, 12:05am

Fri Jul 31, 11:05pm

Fri Jul 31, 10:04pm

Fri Jul 31, 9:04pm

Fri Jul 31, 8:05pm

Fri Jul 31, 7:05pm

Fri Jul 31, 6:04pm

Fri Jul 31, 5:04pm

Fri Jul 31, 4:05pm

Fri Jul 31, 3:04pm

Fri Jul 31, 2:05pm

Fri Jul 31, 12:04pm

Meta data:

ID: aa0c01dd-ff0b-4de7-8e23-bb84a3647010
Link: https://api.weather.gov/products/aa0c01dd-ff0b-4de7-8e23-bb84a3647010